Hourly Weather Roundup
Issued by NWS Central Illinois

Home | Current Version | Previous Version | Graphics & Text | Print | Product List | Glossary On
Versions: 1 2 3 4 5 6 7 8 9 10 11 12 13 14 15 16 17 18 19 20 21 22 23 24 25 26 27 28 29 30 31 32 33 34 35 36 37 38 39 40 41 42 43 44 45 46 47 48 49 50
000
NZUS43 KILX 300110
HWRILX

AREA WEATHER ROUNDUP
NATIONAL WEATHER SERVICE, LINCOLN IL
800 PM CDT THU SEP 29 2016


CITY           SKY/WX    TMP DP  RH WIND       PRES   REMARKS
BLOOMINGTON    PTCLDY    61  58  90 N16       30.18S
CHAMPAIGN      CLOUDY    63  57  81 NE12      30.14R
DANVILLE       LGT RAIN  59  58  96 N6        30.11S
DECATUR        CLOUDY    62  59  90 N14G24    30.16R
EFFINGHAM      CLEAR     61  59  94 NW7       30.13R
FLORA          CLEAR     60  55  84 NW6       30.11S
GALESBURG      MOCLDY    63  55  76 N9        30.24R
JACKSONVILLE   CLOUDY    62  58  88 N13       30.20R
LACON          PTCLDY    61  55  82 N6        30.21S
LAWRENCEVILLE  MOCLDY    58  54  86 E3        30.11R
LITCHFIELD     PTCLDY    57  54  91 N7        30.17R
$$


CITY           SKY/WX    TMP DP  RH WIND       PRES   REMARKS
LINCOLN        CLOUDY    61  60  95 N8        30.18R
MACOMB         CLOUDY    66  55  68 NE14G20   30.25R
MATTOON        CLOUDY    60  54  80 NW8       30.12R
MT CARMEL AP   MOCLDY    56  52  84 CALM      30.11R
OLNEY-NOBLE AP CLEAR     55  54  94 NW5       30.11S
PARIS          PTCLDY    58  52  81 CALM      30.13S
PEORIA         MOCLDY    63  57  81 NE12G20   30.21R
PONTIAC        CLOUDY    62  62  98 N8        30.20R
RANTOUL        CLEAR     62  60  92 N10       30.15S
ROBINSON       PTCLDY    51  50  95 NW3       30.12R
SPRINGFIELD    PTCLDY    61  58  90 N12       30.18S
TAYLORVILLE    CLOUDY    59  59  98 N10       30.16R
$$

...REGIONAL REPORTS...


CITY           SKY/WX    TMP DP  RH WIND       PRES   REMARKS
CHICAGO O`HARE CLOUDY    63  57  81 NE9       30.23R
KANKAKEE       PTCLDY    61  58  90 N9        30.18S
MOLINE         CLOUDY    67  53  61 NE10      30.25R
MOUNT STERLING CLOUDY    65  55  69 NE9G16    30.21R
MOUNT VERNON   CLEAR     59  54  82 W3        30.13S
PITTSFIELD     CLOUDY    67  56  68 NE7       30.21R
QUINCY         CLOUDY    68  54  60 NE13      30.20R
ROCKFORD       LGT RAIN  63  55  75 NE10      30.29R
$$


CITY           SKY/WX    TMP DP  RH WIND       PRES   REMARKS
BURLINGTON     CLOUDY    68  55  63 NE12      30.24R
CEDAR RAPIDS   CLEAR     63  51  65 N8        30.28R
DES MOINES     CLEAR     67  47  48 N8        30.29S
KIRKSVILLE     CLEAR     62  49  62 N6        30.25R
OTTUMWA        CLEAR     63  44  50 N7        30.27R
ST LOUIS       LGT RAIN  64  58  80 NE3       30.18S
$$


CITY           SKY/WX    TMP DP  RH WIND       PRES   REMARKS
TERRE HAUTE    PTCLDY    55  53  93 CALM      30.11R
EVANSVILLE     MOCLDY    60  54  80 CALM      30.11R
INDIANAPOLIS   CLOUDY    64  52  64 N6        30.09S
LAFAYETTE      CLOUDY    61  53  75 N3        30.12R
MADISON        CLEAR     62  52  69 NE12      30.30S
MILWAUKEE      MOCLDY    62  57  83 N17G25    30.28R
$$





USA.gov is the U.S. government's official web portal to all federal, state and local government web resources and services.